Simultaneous Nadir Overpasses (SNOs) Predictions

Prediction of SNOs between LANDSAT-8 and METOP-A Satellite Orbit:

Table of predicted SNOs for the next 14.0 days since TLE Epoch: 8/15/2020
Index Date (LANDSAT-8) Time (LANDSAT-8) Lat,Lon (LANDSAT-8) SZA (LANDSAT-8 ) Date (METOP-A) Time (METOP-A) Lat,Lon (METOP-A) SZA (METOP-A ) Distance(km) Time Diff (sec)
1 08/17/2020 06:10:48 81.47, 133.69 70.81 08/17/2020 06:10:01 81.46, 133.78 70.80 1.89 47
2 08/17/2020 07:00:16 -81.45, -59.12 109.24 08/17/2020 07:00:42 -81.46, -59.00 109.21 2.41 26
3 08/20/2020 01:45:05 81.47,-159.82 71.75 08/20/2020 01:44:25 81.46,-159.90 71.72 1.88 40
4 08/20/2020 02:34:33 -81.45, 7.41 108.30 08/20/2020 02:35:06 -81.46, 7.36 108.28 1.15 33
5 08/22/2020 21:19:23 81.46, -93.58 72.68 08/22/2020 21:18:49 81.46, -93.60 72.66 0.42 34
6 08/22/2020 22:08:50 -81.46, 74.07 107.31 08/22/2020 22:09:29 -81.45, 74.10 107.29 1.24 39
7 08/25/2020 16:53:41 81.46, -27.19 73.66 08/25/2020 16:53:13 81.46, -27.30 73.63 1.83 28
8 08/25/2020 17:43:07 -81.46, 140.50 106.33 08/25/2020 17:43:52 -81.45, 140.43 106.32 1.54 45
9 08/28/2020 12:27:58 81.46, 39.35 74.68 08/28/2020 12:27:35 81.45, 39.38 74.67 1.42 23
